DEFOG EDLP-EDLW

Flight info

Callsign DEFOG
Flight time 0h 17m
Altitude
Route
Aircraft VL3

Departure

Time 2026-04-30 19:19
Airport Paderborn Lippstadt Airport (EDLP)

Arrival

Time 2026-04-30 19:36
Airport Dortmund Airport (EDLW)
Time Latitude Longitude Altitude Speed Heading
2026-04-30 19:14 51.61003 8.61582 702 ft 0 kts 309°
2026-04-30 19:15 51.61004 8.61576 702 ft 3 kts 206°
2026-04-30 19:16 51.60968 8.61532 702 ft 11 kts 237°
2026-04-30 19:16 51.60996 8.61467 699 ft 12 kts 256°
2026-04-30 19:16 51.60975 8.61208 701 ft 14 kts 275°
2026-04-30 19:17 51.60997 8.61071 705 ft 13 kts 299°
2026-04-30 19:17 51.61147 8.61076 704 ft 15 kts 18°
2026-04-30 19:17 51.61283 8.61356 704 ft 67 kts 60°
2026-04-30 19:18 51.61928 8.62818 913 ft 117 kts 36°
2026-04-30 19:18 51.63033 8.63321 1145 ft 133 kts 14°
2026-04-30 19:18 51.64116 8.63594 1282 ft 173 kts 18°
2026-04-30 19:19 51.65267 8.63947 1465 ft 167 kts
2026-04-30 19:19 51.66322 8.63137 1545 ft 173 kts 332°
2026-04-30 19:19 51.68425 8.61220 1581 ft 177 kts 339°
2026-04-30 19:20 51.69638 8.60372 1793 ft 209 kts 334°
2026-04-30 19:20 51.70576 8.58379 1575 ft 231 kts 301°
2026-04-30 19:20 51.71873 8.54326 1860 ft 174 kts 297°
2026-04-30 19:21 51.72403 8.52495 1884 ft 184 kts 296°
2026-04-30 19:21 51.73631 8.48759 1950 ft 193 kts 298°
2026-04-30 19:22 51.72896 8.44885 1908 ft 186 kts 236°
2026-04-30 19:22 51.71211 8.39164 1853 ft 195 kts 243°
2026-04-30 19:23 51.69792 8.33109 1968 ft 190 kts 250°
2026-04-30 19:24 51.68939 8.29158 2212 ft 185 kts 247°
2026-04-30 19:24 51.68355 8.27372 2133 ft 182 kts 219°
2026-04-30 19:24 51.66597 8.24233 1959 ft 190 kts 225°
2026-04-30 19:25 51.64235 8.19267 1951 ft 188 kts 234°
2026-04-30 19:26 51.63153 8.15493 2202 ft 183 kts 240°
2026-04-30 19:26 51.61930 8.11865 2077 ft 190 kts 240°
2026-04-30 19:26 51.61432 8.09935 2224 ft 183 kts 245°
2026-04-30 19:27 51.60547 8.06176 2396 ft 177 kts 223°
2026-04-30 19:27 51.59146 8.03162 2253 ft 158 kts 225°
2026-04-30 19:28 51.58374 8.01387 2034 ft 213 kts 232°
2026-04-30 19:28 51.56987 7.97368 2064 ft 190 kts 243°
2026-04-30 19:29 51.55817 7.93913 2073 ft 181 kts 237°
2026-04-30 19:29 51.55318 7.92044 2139 ft 181 kts 240°
2026-04-30 19:30 51.52746 7.86159 1977 ft 240 kts 219°
2026-04-30 19:30 51.50564 7.82012 1943 ft 239 kts 234°
2026-04-30 19:31 51.49082 7.77353 1778 ft 243 kts 248°
2026-04-30 19:31 51.48540 7.74963 1691 ft 235 kts 251°
2026-04-30 19:31 51.47818 7.70590 1717 ft 192 kts 258°
2026-04-30 19:32 51.47536 7.68571 1623 ft 168 kts 248°
2026-04-30 19:32 51.47074 7.66732 1632 ft 183 kts 244°
2026-04-30 19:32 51.46766 7.64909 1599 ft 159 kts 275°
2026-04-30 19:32 51.47277 7.63658 1472 ft 136 kts 330°
2026-04-30 19:33 51.48005 7.62963 1330 ft 98 kts 343°
2026-04-30 19:33 51.48597 7.62612 1147 ft 89 kts 353°
2026-04-30 19:33 51.49237 7.62365 1066 ft 99 kts 353°
2026-04-30 19:33 51.49909 7.62100 955 ft 87 kts 354°
2026-04-30 19:34 51.50096 7.61098 819 ft 136 kts 243°
2026-04-30 19:34 51.49789 7.59723 866 ft 120 kts 256°
2026-04-30 19:34 51.50223 7.57792 791 ft 99 kts 351°
2026-04-30 19:35 51.50804 7.58288 702 ft 89 kts 65°
2026-04-30 19:35 51.51105 7.59160 626 ft 91 kts 64°
2026-04-30 19:35 51.51433 7.60079 537 ft 94 kts 64°
2026-04-30 19:35 51.51706 7.60854 419 ft 56 kts 66°
2026-04-30 19:36 51.51813 7.61174 413 ft 27 kts 65°
2026-04-30 19:36 51.51914 7.61457 409 ft 29 kts 52°
2026-04-30 19:36 51.52099 7.61985 407 ft 31 kts 61°
2026-04-30 19:37 51.52188 7.62241 404 ft 17 kts 75°
2026-04-30 19:37 51.52147 7.62349 404 ft 11 kts 151°
2026-04-30 19:37 51.52133 7.62360 404 ft 0 kts 152°
2026-04-30 19:38 51.52124 7.62368 404 ft 0 kts 151°
2026-04-30 19:39 51.52040 7.62359 403 ft 28 kts 239°
2026-04-30 19:39 51.51942 7.62077 407 ft 26 kts 242°
2026-04-30 19:39 51.51850 7.61802 410 ft 26 kts 239°
2026-04-30 19:39 51.51765 7.61572 415 ft 22 kts 240°
2026-04-30 19:40 51.51678 7.61327 420 ft 33 kts 241°
2026-04-30 19:40 51.51578 7.61063 422 ft 23 kts 206°
2026-04-30 19:40 51.51472 7.60948 426 ft 37 kts 239°
2026-04-30 19:40 51.51340 7.60572 436 ft 31 kts 242°
2026-04-30 19:41 51.51238 7.60285 442 ft 29 kts 240°
2026-04-30 19:41 51.51166 7.60180 452 ft 8 kts 93°
2026-04-30 19:41 51.51189 7.60348 455 ft 5 kts 166°
2026-04-30 19:41 51.51187 7.60349 455 ft 0 kts 174°
2026-04-30 19:42 51.51186 7.60349 457 ft 0 kts 172°